FW9594 Weather Reports


time (UTC)temp
C
wind
direction
speed
KPH
gust
KPH
rain 1hr
cm
rain 24hr
cm
rain mn
cm
humidity
%
barometer
mb
20260509134537 22 326 3.2 11.3 0.00 0.00 0.00 82 1009.9
20260509133531 22 39 4.8 14.5 0.00 0.00 0.00 83 1009.8
20260509132533 21 54 4.8 11.3 0.00 0.00 0.00 84 1009.6
20260509131530 21 38 11.3 14.5 0.00 0.00 0.00 85 1009.6
20260509130527 21 49 6.4 14.5 0.00 0.00 0.00 86 1009.8
20260509125523 20 41 6.4 14.5 0.00 0.00 0.00 88 1009.6
20260509124523 20 16 4.8 9.7 0.00 0.03 0.00 89 1009.6
20260509123522 20 28 8.0 14.5 0.00 0.05 0.00 89 1009.6
20260509122522 20 49 3.2 9.7 0.00 0.10 0.00 90 1009.8
20260509121522 19 23 4.8 8.0 0.00 0.13 0.00 90 1009.6
20260509120522 19 265 1.6 6.4 0.00 0.38 0.00 90 1009.6
20260509115958 19 49 4.8 8.0 0.00 0.38 0.00 90 1009.4
20260509114522 19 285 4.8 8.0 0.00 0.38 0.00 89 1009.4
20260509114005 19 37 1.6 9.7 0.00 0.38 0.00 88 1009.2
20260509112523 19 75 3.2 9.7 0.00 0.38 0.00 87 1008.7
20260509111523 20 281 4.8 8.0 0.00 0.38 0.00 86 1008.7
20260509110523 20 337 3.2 8.0 0.00 0.38 0.00 86 1008.4
20260509105522 20 271 6.4 8.0 0.00 0.38 0.00 86 1008.2
20260509104522 20 286 3.2 4.8 0.00 0.38 0.00 87 1007.9
20260509103523 20 278 0.0 0.0 0.00 0.41 0.00 87 1007.9
20260509102522 20 276 0.0 3.2 0.00 0.74 0.00 87 1007.8
20260509102000 20 276 0.0 3.2 0.00 0.89 0.00 87 1007.7
20260509100523 20 279 0.0 3.2 0.00 0.89 0.00 86 1007.7
20260509095522 20 281 0.0 1.6 0.00 0.91 0.00 86 1007.7
20260509095002 20 333 0.0 0.0 0.00 0.94 0.00 85 1007.4
20260509093525 20 37 0.0 0.0 0.00 0.94 0.00 84 1007.2
20260509092524 21 345 0.0 0.0 0.00 0.94 0.00 82 1007.3
20260509091524 21 231 0.0 1.6 0.00 0.94 0.00 81 1006.9
20260509090524 21 320 0.0 6.4 0.00 0.94 0.00 83 1007.0
20260509085524 21 279 0.0 4.8 0.00 0.94 0.00 85 1007.4
20260509085009 21 299 1.6 6.4 0.00 0.94 0.00 85 1007.1
20260509083524 21 51 0.0 6.4 0.00 0.97 0.00 85 1005.6
20260509083008 21 221 3.2 9.7 0.00 0.97 0.00 85 1005.1
20260509081523 21 175 1.6 11.3 0.00 1.02 0.00 86 1005.5
20260509080524 21 214 1.6 6.4 0.00 1.02 0.00 86 1006.2
20260509075524 21 138 3.2 9.7 0.00 1.04 0.00 86 1006.9
20260509074955 21 212 4.8 9.7 0.00 1.07 0.00 86 1007.6
20260509073524 21 171 1.6 11.3 0.00 1.07 0.00 87 1008.3
20260509072524 21 230 3.2 9.7 0.00 1.09 0.00 87 1008.3
20260509071524 21 227 3.2 9.7 0.00 1.14 0.00 87 1008.7
20260509070523 20 233 3.2 9.7 0.00 1.14 0.00 88 1009.1
20260509065525 20 317 0.0 9.7 0.00 1.14 0.00 88 1009.3
20260509065031 20 219 1.6 9.7 0.00 1.14 0.00 88 1009.5
20260509063523 20 296 6.4 9.7 0.00 1.14 0.00 88 1009.9
20260509062524 20 292 6.4 8.0 0.00 1.14 0.00 89 1009.9
20260509061524 20 274 1.6 6.4 0.00 1.14 0.00 88 1009.8
20260509061441 20 180 1.6 3.2 0.00 1.14 0.00 87 1009.5
20260509055523 20 230 0.0 0.0 0.00 1.14 0.00 86 1009.8
20260509054523 20 154 0.0 0.0 0.00 1.14 0.00 85 1009.5
20260509053959 20 114 0.0 0.0 0.00 1.14 0.00 85 1010.1
20260509052524 21 113 0.0 1.6 0.00 1.14 0.00 83 1010.4
20260509051523 21 37 0.0 3.2 0.00 1.14 0.00 83 1010.6
20260509050523 21 8 3.2 8.0 0.00 1.14 0.00 84 1010.8
20260509045959 21 38 4.8 6.4 0.00 1.14 1.14 85 1010.8
20260509044523 21 103 0.0 0.0 0.00 1.14 1.14 83 1009.5
20260509043523 21 103 0.0 0.0 0.00 1.14 1.14 82 1009.5
20260509042523 21 103 0.0 0.0 0.00 1.14 1.14 81 1009.6
20260509041523 21 103 0.0 0.0 0.00 1.14 1.14 81 1009.3
20260509040524 21 104 0.0 6.4 0.00 1.14 1.14 80 1009.0
20260509035524 22 214 0.0 1.6 0.00 1.14 1.14 80 1008.9
20260509034523 22 243 0.0 1.6 0.00 1.14 1.14 79 1008.6
20260509033523 22 157 0.0 4.8 0.00 1.14 1.14 79 1009.0
20260509032523 22 51 0.0 0.0 0.00 1.14 1.14 79 1009.9
20260509031524 22 44 0.0 9.7 0.00 1.14 1.14 80 1009.9
20260509030524 22 28 1.6 6.4 0.00 1.14 1.14 81 1009.4
20260509025524 22 87 0.0 3.2 0.00 1.14 1.14 81 1008.8
20260509024523 21 261 0.0 0.0 0.00 1.14 1.14 81 1008.4
20260509023524 21 142 0.0 0.0 0.00 1.14 1.14 81 1008.3
20260509022523 21 145 0.0 3.2 0.00 1.14 1.14 81 1007.9
20260509021524 21 197 0.0 3.2 0.00 1.14 1.14 80 1007.6
20260509020522 22 118 0.0 3.2 0.00 1.14 1.14 80 1007.6
20260509015521 22 48 1.6 6.4 0.00 1.14 1.14 79 1007.3
20260509014521 22 147 0.0 1.6 0.00 1.14 1.14 79 1007.4
20260509014004 22 221 0.0 3.2 0.00 1.14 1.14 78 1007.5
20260509013004 22 259 0.0 1.6 0.00 1.14 1.14 77 1007.8
20260509011521 22 102 0.0 3.2 0.00 1.14 1.14 77 1007.9
20260509010520 22 257 0.0 0.0 0.00 1.14 1.14 77 1007.8
20260509005958 22 266 0.0 1.6 0.00 1.14 1.14 76 1007.7
20260509004520 22 240 0.0 6.4 0.00 1.14 1.14 75 1007.5
20260509003520 23 162 0.0 3.2 0.00 1.14 1.14 73 1007.5
20260509002522 23 250 0.0 3.2 0.00 1.14 1.14 72 1007.1
20260509001521 24 197 0.0 3.2 0.00 1.14 1.14 71 1007.2
20260509000524 24 193 1.6 4.8 0.00 1.14 1.14 70 1007.1
20260508235521 24 250 1.6 8.0 0.00 1.14 1.14 71 1007.3
20260508235007 24 227 1.6 4.8 0.00 1.14 1.14 69 1007.3
20260508233522 24 292 0.0 6.4 0.00 1.14 1.14 70 1007.6
20260508232957 24 125 1.6 9.7 0.00 1.14 1.14 68 1007.6
20260508231522 25 240 3.2 8.0 0.00 1.14 1.14 66 1007.6
20260508231003 25 228 1.6 8.0 0.00 1.14 1.14 65 1007.6
20260508225521 26 220 3.2 6.4 0.00 1.14 1.14 61 1007.7
20260508224521 27 306 0.0 4.8 0.00 1.14 1.14 61 1007.6
20260508223522 26 233 1.6 8.0 0.00 1.14 1.14 62 1007.7
20260508222522 26 186 3.2 6.4 0.00 1.14 1.14 61 1007.8
20260508221522 26 283 3.2 9.7 0.00 1.14 1.14 61 1007.8
20260508220521 26 100 3.2 9.7 0.00 1.14 1.14 64 1007.8
20260508215521 26 189 3.2 9.7 0.00 1.14 1.14 62 1007.7
20260508214523 26 274 1.6 8.0 0.00 1.14 1.14 62 1007.8
20260508214008 26 193 1.6 9.7 0.00 1.14 1.14 63 1007.7
20260508212523 26 286 3.2 8.0 0.00 1.14 1.14 60 1007.9
20260508211522 27 240 1.6 8.0 0.00 1.14 1.14 61 1008.2
20260508210522 27 281 1.6 4.8 0.00 1.14 1.14 61 1008.2
20260508205523 26 217 1.6 9.7 0.00 1.14 1.14 62 1008.1
20260508205003 25 250 1.6 4.8 0.00 1.14 1.14 64 1008.3
20260508204448 25 199 1.6 4.8 0.00 1.14 1.14 66 1008.9
20260508202959 23 233 1.6 8.0 0.00 1.14 1.14 67 1009.8
20260508201522 23 274 1.6 6.4 0.00 1.14 1.14 67 1010.1
20260508200523 23 266 1.6 4.8 0.00 1.14 1.14 67 1010.1
20260508195524 24 190 1.6 9.7 0.00 1.14 1.14 67 1010.0
20260508194522 24 271 3.2 6.4 0.00 1.14 1.14 65 1010.0
20260508193523 24 258 3.2 8.0 0.00 1.14 1.14 65 1010.1
20260508192522 25 251 1.6 6.4 0.00 1.14 1.14 65 1010.2
20260508191958 25 192 1.6 6.4 0.00 1.14 1.14 63 1010.1
20260508190522 25 212 1.6 6.4 0.00 1.14 1.14 63 1010.2
20260508185522 25 238 3.2 6.4 0.00 1.14 1.14 61 1010.3
20260508184524 26 199 1.6 9.7 0.00 1.14 1.14 61 1010.3
20260508183523 26 207 1.6 6.4 0.00 1.14 1.14 62 1010.4
20260508183006 26 292 1.6 6.4 0.00 1.14 1.14 64 1010.5
20260508181523 25 131 1.6 6.4 0.00 1.14 1.14 64 1010.7
20260508180522 25 278 3.2 9.7 0.00 1.14 1.14 65 1011.1
20260508180004 25 223 1.6 9.7 0.00 1.14 1.14 68 1011.2
20260508174956 24 276 8.0 14.5 0.00 1.14 1.14 62 1011.3
20260508173522 25 117 1.6 14.5 0.00 1.14 1.14 64 1011.5
20260508172523 24 251 3.2 9.7 0.00 1.14 1.14 64 1011.6
20260508171522 24 224 1.6 4.8 0.00 1.14 1.14 64 1011.6
20260508170522 23 178 1.6 6.4 0.00 1.14 1.14 65 1011.8
20260508165522 23 45 1.6 6.4 0.00 1.14 1.14 67 1012.0
20260508164522 22 152 1.6 8.0 0.00 1.14 1.14 66 1012.2
20260508163523 22 125 1.6 4.8 0.00 1.14 1.14 67 1012.5
20260508162523 22 62 1.6 6.4 0.00 1.14 1.14 67 1012.7
20260508161523 22 106 1.6 6.4 0.00 1.14 1.14 70 1012.9
20260508160522 21 320 1.6 3.2 0.00 1.14 1.14 72 1013.0
20260508155522 20 282 0.0 3.2 0.00 1.14 1.14 73 1013.0
20260508154523 20 219 0.0 4.8 0.00 1.14 1.14 74 1013.1
20260508153522 20 231 0.0 6.4 0.00 1.14 1.14 74 1013.3
20260508152522 19 286 0.0 4.8 0.00 1.14 1.14 78 1013.2
20260508151522 19 230 0.0 1.6 0.00 1.14 1.14 77 1013.2
20260508150521 19 149 0.0 0.0 0.00 1.14 1.14 77 1013.6
20260508145521 19 226 0.0 0.0 0.00 1.14 1.14 76 1013.5
20260508144520 19 148 0.0 1.6 0.00 1.14 1.14 79 1013.6
20260508143520 18 176 0.0 0.0 0.00 1.14 1.14 84 1013.4
20260508143003 18 233 0.0 0.0 0.00 1.14 1.14 85 1013.9
20260508142012 17 244 0.0 0.0 0.00 1.14 1.14 84 1013.9
20260508140520 17 110 0.0 0.0 0.00 1.14 1.14 87 1013.8